,,Stat6,,Stat2,,Stat8,,Stat9,,Stat10,,Wind1,,Wind1,
time,status,PA1M_AVG,status,PR1M_SUM,status,RH1M_AVG,status,SR1M_AVG,status,TA1M_AVG,status,W1dAve1m,status,W1sAve1m,
2007-03-08, 00:00:01,VALID,916.247,VALID,0,VALID,99.7459,VALID,40.8219,VALID,19.574,VALID,22,VALID,0,
2007-03-08, 00:01:00,VALID,916.267,VALID,0,VALID,99.5463,VALID,42.0276,VALID,19.5808,VALID,22,VALID,0.0182292,
2007-03-08, 00:02:01,VALID,916.293,VALID,0,VALID,99.6836,VALID,42.9955,VALID,19.587,VALID,22,VALID,0.047433,
2007-03-08, 00:03:00,VALID,916.309,VALID,0,VALID,99.7904,VALID,43.8954,VALID,19.6165,VALID,22,VALID,0.0128472,
2007-03-08, 00:04:00,VALID,916.332,VALID,0,VALID,99.7548,VALID,44.5237,VALID,19.6392,VALID,22,VALID,0.00266768,
2007-03-08, 00:05:00,VALID,916.352,VALID,0,VALID,99.7472,VALID,44.4388,VALID,19.6616,VALID,22,VALID,0,
2007-03-08, 00:06:01,VALID,916.37,VALID,0,VALID,99.8019,VALID,43.8275,VALID,19.7008,VALID,22,VALID,0,
2007-03-08, 00:07:00,VALID,916.379,VALID,0,VALID,99.7294,VALID,43.2841,VALID,19.7365,VALID,22,VALID,0,
2007-03-08, 00:08:00,VALID,916.38,VALID,0,VALID,99.5768,VALID,43.5728,VALID,19.753,VALID,22,VALID,0,
2007-03-08, 00:09:00,VALID,916.391,VALID,0,VALID,99.0961,VALID,44.7785,VALID,19.7397,VALID,22,VALID,0,
2007-03-08, 00:10:00,VALID,916.399,VALID,0,VALID,98.8507,VALID,46.986,VALID,19.7073,VALID,22,VALID,0,
2007-03-08, 00:11:00,VALID,916.422,VALID,0,VALID,98.7083,VALID,49.635,VALID,19.6911,VALID,22,VALID,0,
2007-03-08, 00:12:00,VALID,916.441,VALID,0,VALID,98.9283,VALID,52.5557,VALID,19.7011,VALID,22,VALID,0.0692472,
2007-03-08, 00:13:00,VALID,916.464,VALID,0,VALID,99.1546,VALID,53.9141,VALID,19.7198,VALID,22,VALID,0.0544922,
2007-03-08, 00:14:00,VALID,916.469,VALID,0,VALID,99.1699,VALID,59.5518,VALID,19.7495,VALID,22,VALID,0,
2007-03-08, 00:15:01,VALID,916.487,VALID,0,VALID,99.1648,VALID,64.7649,VALID,19.7822,VALID,22,VALID,0.167882,
2007-03-08, 00:16:00,VALID,916.498,VALID,0,VALID,99.1788,VALID,68.8743,VALID,19.8109,VALID,22,VALID,0.166969,
2007-03-08, 00:17:01,VALID,916.501,VALID,0,VALID,99.0516,VALID,73.2213,VALID,19.85,VALID,22,VALID,0.454928,
2007-03-08, 00:18:00,VALID,916.503,VALID,0,VALID,98.997,VALID,81.525,VALID,19.8855,VALID,22,VALID,0.0915179,
2007-03-08, 00:19:00,VALID,916.512,VALID,0,VALID,98.997,VALID,89.8286,VALID,19.9444,VALID,22,VALID,0.0964134,
2007-03-08, 00:20:00,VALID,916.527,VALID,0,VALID,98.927,VALID,103.074,VALID,20.0093,VALID,22,VALID,0.0455412,
2007-03-08, 00:21:00,VALID,916.547,VALID,0,VALID,98.7452,VALID,115.198,VALID,20.0774,VALID,14,VALID,0.469551,
2007-03-08, 00:22:00,VALID,916.545,VALID,0,VALID,98.4985,VALID,120.819,VALID,20.1283,VALID,356,VALID,0.216619,
2007-03-08, 00:23:00,VALID,916.553,VALID,0,VALID,98.4553,VALID,116.879,VALID,20.2262,VALID,351,VALID,0.40987,
2007-03-08, 00:24:00,VALID,916.573,VALID,0,VALID,97.7915,VALID,106.86,VALID,20.2721,VALID,352,VALID,0.607195,
2007-03-08, 00:25:01,VALID,916.575,VALID,0,VALID,97.7355,VALID,80.591,VALID,20.3557,VALID,352,VALID,0.308036,
2007-03-08, 00:26:00,VALID,916.59,VALID,0,VALID,97.6999,VALID,78.7062,VALID,20.4543,VALID,337,VALID,0.334162,
2007-03-08, 00:27:01,VALID,916.591,VALID,0,VALID,97.2472,VALID,81.9155,VALID,20.4793,VALID,289,VALID,0.213021,
2007-03-08, 00:28:00,VALID,916.608,VALID,0,VALID,97.0298,VALID,82.2042,VALID,20.5022,VALID,283,VALID,0,
2007-03-08, 00:29:01,VALID,916.622,VALID,0,VALID,96.8301,VALID,89.506,VALID,20.4958,VALID,283,VALID,0.0213914,
2007-03-08, 00:30:01,VALID,916.628,VALID,0,VALID,96.6865,VALID,119.698,VALID,20.4765,VALID,283,VALID,0.00545058,
2007-03-08, 00:31:00,VALID,916.655,VALID,0,VALID,96.6127,VALID,154.118,VALID,20.4698,VALID,283,VALID,0.0690104,
2007-03-08, 00:32:01,VALID,916.658,VALID,0,VALID,96.5542,VALID,175.65,VALID,20.486,VALID,283,VALID,0.234557,
2007-03-08, 00:33:01,VALID,916.67,VALID,0,VALID,96.7348,VALID,179.25,VALID,20.5477,VALID,283,VALID,0.0644055,
2007-03-08, 00:34:00,VALID,916.684,VALID,0,VALID,96.6534,VALID,207.489,VALID,20.6418,VALID,283,VALID,0.130814,
2007-03-08, 00:35:01,VALID,916.691,VALID,0,VALID,96.5059,VALID,181.78,VALID,20.7162,VALID,283,VALID,0.0613839,
2007-03-08, 00:36:00,VALID,916.701,VALID,0,VALID,96.5885,VALID,234.522,VALID,20.8335,VALID,283,VALID,0.0962271,
2007-03-08, 00:37:01,VALID,916.716,VALID,0,VALID,96.2935,VALID,221.906,VALID,20.9896,VALID,327,VALID,0.37609,
2007-03-08, 00:38:01,VALID,916.737,VALID,0,VALID,95.8408,VALID,158.363,VALID,21.1256,VALID,350,VALID,0.0461483,
2007-03-08, 00:39:01,VALID,916.764,VALID,0,VALID,94.4599,VALID,186.993,VALID,21.1321,VALID,349,VALID,0.21804,
2007-03-08, 00:40:01,VALID,916.783,VALID,0,VALID,94.1458,VALID,257.311,VALID,21.1616,VALID,336,VALID,0.452083,
2007-03-08, 00:41:01,VALID,916.78,VALID,0,VALID,93.5685,VALID,255.918,VALID,21.1616,VALID,323,VALID,0.529514,
2007-03-08, 00:42:01,VALID,916.783,VALID,0,VALID,93.2073,VALID,256.852,VALID,21.1454,VALID,300,VALID,0.430078,
2007-03-08, 00:43:01,VALID,916.781,VALID,0,VALID,93.5939,VALID,266.208,VALID,21.233,VALID,315,VALID,0.382068,
2007-03-08, 00:44:01,VALID,916.794,VALID,0,VALID,93.4248,VALID,266.888,VALID,21.3631,VALID,356,VALID,0.926781,
2007-03-08, 00:45:01,VALID,916.82,VALID,0,VALID,92.5245,VALID,270.657,VALID,21.438,VALID,2,VALID,1.1677,
2007-03-08, 00:46:01,VALID,916.851,VALID,0,VALID,92.1354,VALID,271.252,VALID,21.4929,VALID,348,VALID,1.04325,
2007-03-08, 00:47:01,VALID,916.854,VALID,0,VALID,91.7336,VALID,268.586,VALID,21.5579,VALID,354,VALID,1.14653,
2007-03-08, 00:48:01,VALID,916.873,VALID,0,VALID,91.689,VALID,254.543,VALID,21.6423,VALID,4,VALID,1.10764,
2007-03-08, 00:49:01,VALID,916.891,VALID,0,VALID,91.0532,VALID,238.717,VALID,21.6591,VALID,14,VALID,1.02102,
2007-03-08, 00:50:01,VALID,916.91,VALID,0,VALID,91.7653,VALID,243.828,VALID,21.7635,VALID,18,VALID,1.08611,
2007-03-08, 00:51:01,VALID,916.911,VALID,0,VALID,90.8778,VALID,215.164,VALID,21.8219,VALID,351,VALID,1.03906,
2007-03-08, 00:52:01,VALID,916.914,VALID,0,VALID,91.3457,VALID,198.998,VALID,21.8214,VALID,18,VALID,0.958452,
2007-03-08, 00:53:00,VALID,916.914,VALID,0,VALID,90.6959,VALID,195.229,VALID,21.8116,VALID,356,VALID,1.29056,
2007-03-08, 00:54:00,VALID,916.923,VALID,0,VALID,90.8981,VALID,168.212,VALID,21.734,VALID,3,VALID,1.11947,
2007-03-08, 00:55:00,VALID,916.947,VALID,0,VALID,90.8981,VALID,158.958,VALID,21.6691,VALID,355,VALID,1.24419,
2007-03-08, 00:56:00,VALID,916.943,VALID,0,VALID,91.3266,VALID,159.722,VALID,21.5554,VALID,9,VALID,1.19247,
2007-03-08, 00:57:00,VALID,916.946,VALID,0,VALID,92.0476,VALID,162.659,VALID,21.559,VALID,27,VALID,1.31072,
2007-03-08, 00:58:00,VALID,916.945,VALID,0,VALID,92.2346,VALID,158.686,VALID,21.5395,VALID,33,VALID,1.44643,
2007-03-08, 00:59:00,VALID,916.954,VALID,0,VALID,92.1812,VALID,157.259,VALID,21.5492,VALID,18,VALID,1.42614,
2007-03-08, 01:00:00,VALID,916.973,VALID,0,VALID,92.2079,VALID,166.429,VALID,21.5427,VALID,19,VALID,1.60029,
2007-03-08, 01:01:00,VALID,917.004,VALID,0,VALID,91.3127,VALID,158.295,VALID,21.4421,VALID,342,VALID,1.54794,
2007-03-08, 01:02:00,VALID,917.036,VALID,0,VALID,91.5949,VALID,139.43,VALID,21.3477,VALID,5,VALID,1.08721,
2007-03-08, 01:03:00,VALID,917.066,VALID,0,VALID,91.9396,VALID,127.713,VALID,21.3382,VALID,348,VALID,1.17078,
2007-03-08, 01:04:00,VALID,917.085,VALID,0,VALID,92.115,VALID,122.924,VALID,21.306,VALID,10,VALID,1.06195,
2007-03-08, 01:05:00,VALID,917.081,VALID,0,VALID,92.1646,VALID,120.479,VALID,21.2895,VALID,341,VALID,0.866146,
2007-03-08, 01:06:00,VALID,917.091,VALID,0,VALID,91.9357,VALID,122.602,VALID,21.2411,VALID,354,VALID,0.877232,
2007-03-08, 01:07:00,VALID,917.087,VALID,0,VALID,92.2803,VALID,128.188,VALID,21.2376,VALID,8,VALID,1.0522,
2007-03-08, 01:08:00,VALID,917.094,VALID,0,VALID,92.6504,VALID,138.19,VALID,21.2408,VALID,22,VALID,1.21697,
2007-03-08, 01:09:00,VALID,917.095,VALID,0,VALID,92.6084,VALID,151.792,VALID,21.2544,VALID,18,VALID,1.05729,
2007-03-08, 01:10:00,VALID,917.096,VALID,0,VALID,92.5919,VALID,176.77,VALID,21.2638,VALID,24,VALID,0.974144,
2007-03-08, 01:11:00,VALID,917.1,VALID,0,VALID,92.7063,VALID,197.181,VALID,21.2963,VALID,26,VALID,0.973899,
2007-03-08, 01:12:00,VALID,917.093,VALID,0,VALID,92.3414,VALID,211.259,VALID,21.306,VALID,16,VALID,0.843192,
2007-03-08, 01:13:00,VALID,917.097,VALID,0,VALID,92.3973,VALID,224.249,VALID,21.3645,VALID,6,VALID,0.606702,
2007-03-08, 01:14:00,VALID,917.126,VALID,0,VALID,92.1824,VALID,224.979,VALID,21.4518,VALID,14,VALID,0.596154,
2007-03-08, 01:15:00,VALID,917.138,VALID,0,VALID,91.6166,VALID,235.813,VALID,21.543,VALID,3,VALID,0.452934,
2007-03-08, 01:16:00,VALID,917.175,VALID,0,VALID,91.3152,VALID,266.786,VALID,21.6528,VALID,322,VALID,0.505814,
2007-03-08, 01:17:00,VALID,917.182,VALID,0,VALID,91.0901,VALID,265.122,VALID,21.7667,VALID,340,VALID,0.486523,
2007-03-08, 01:18:00,VALID,917.194,VALID,0,VALID,90.6934,VALID,238.275,VALID,21.9193,VALID,341,VALID,0.565589,
2007-03-08, 01:19:00,VALID,917.194,VALID,0,VALID,89.8236,VALID,231.33,VALID,22.0654,VALID,15,VALID,0.72311,
2007-03-08, 01:20:00,VALID,917.199,VALID,0,VALID,89.2806,VALID,228.46,VALID,22.1655,VALID,41,VALID,1.13418,
2007-03-08, 01:21:00,VALID,917.198,VALID,0,VALID,89.6659,VALID,233.181,VALID,22.3184,VALID,31,VALID,0.778646,
2007-03-08, 01:22:00,VALID,917.195,VALID,0,VALID,88.3994,VALID,235.507,VALID,22.422,VALID,3,VALID,0.657848,
2007-03-08, 01:23:00,VALID,917.196,VALID,0,VALID,87.845,VALID,232.434,VALID,22.4681,VALID,22,VALID,0.826349,
2007-03-08, 01:24:00,VALID,917.211,VALID,0,VALID,87.1698,VALID,255.935,VALID,22.5274,VALID,355,VALID,0.609933,
2007-03-08, 01:25:00,VALID,917.222,VALID,0,VALID,86.8099,VALID,276.771,VALID,22.5858,VALID,8,VALID,0.458891,
2007-03-08, 01:26:00,VALID,917.227,VALID,0,VALID,86.5327,VALID,274.852,VALID,22.719,VALID,20,VALID,0.670541,
2007-03-08, 01:27:00,VALID,917.224,VALID,0,VALID,86.6916,VALID,272.712,VALID,22.8454,VALID,26,VALID,0.605841,
2007-03-08, 01:28:00,VALID,917.214,VALID,0,VALID,85.8282,VALID,249.754,VALID,22.9265,VALID,349,VALID,0.815476,
2007-03-08, 01:29:00,VALID,917.201,VALID,0,VALID,84.9864,VALID,257.803,VALID,22.7217,VALID,318,VALID,0.709985,
2007-03-08, 01:30:00,VALID,917.195,VALID,0,VALID,86.8506,VALID,262.354,VALID,22.6921,VALID,360,VALID,0.555246,
2007-03-08, 01:31:00,VALID,917.197,VALID,0,VALID,86.6408,VALID,265.818,VALID,22.7506,VALID,19,VALID,0.529948,
2007-03-08, 01:32:00,VALID,917.207,VALID,0,VALID,87.0998,VALID,271.235,VALID,22.8545,VALID,38,VALID,0.697473,
2007-03-08, 01:33:00,VALID,917.229,VALID,0,VALID,86.6904,VALID,290.644,VALID,22.9877,VALID,42,VALID,0.507622,
2007-03-08, 01:34:00,VALID,917.244,VALID,0,VALID,86.3712,VALID,304.551,VALID,23.1439,VALID,48,VALID,0.618331,
2007-03-08, 01:35:00,VALID,917.262,VALID,0,VALID,85.2306,VALID,322.466,VALID,23.3467,VALID,36,VALID,0.414844,
2007-03-08, 01:36:00,VALID,917.28,VALID,0,VALID,83.9145,VALID,317.592,VALID,23.4394,VALID,8,VALID,0.747954,
2007-03-08, 01:37:00,VALID,917.287,VALID,0,VALID,83.3473,VALID,320.14,VALID,23.4628,VALID,29,VALID,1.1942,
2007-03-08, 01:38:00,VALID,917.293,VALID,0,VALID,83.5203,VALID,325.234,VALID,23.5124,VALID,13,VALID,0.76527,
2007-03-08, 01:39:00,VALID,917.284,VALID,0,VALID,82.7408,VALID,345.917,VALID,23.5505,VALID,30,VALID,1.53997,
2007-03-08, 01:40:00,VALID,917.306,VALID,0,VALID,82.7471,VALID,362.116,VALID,23.4433,VALID,26,VALID,1.73121,
2007-03-08, 01:41:00,VALID,917.333,VALID,0,VALID,83.6576,VALID,360.435,VALID,23.3269,VALID,19,VALID,0.829459,
2007-03-08, 01:42:00,VALID,917.359,VALID,0,VALID,84.488,VALID,363.797,VALID,23.3426,VALID,43,VALID,0.478423,
2007-03-08, 01:43:00,VALID,917.394,VALID,0,VALID,84.0607,VALID,373.29,VALID,23.4902,VALID,84,VALID,0.414426,
2007-03-08, 01:44:00,VALID,917.44,VALID,0,VALID,83.1566,VALID,352.675,VALID,23.6464,VALID,237,VALID,0.428943,
2007-03-08, 01:45:00,VALID,917.476,VALID,0,VALID,82.9811,VALID,345.339,VALID,23.7182,VALID,304,VALID,0.180575,
2007-03-08, 01:46:00,VALID,917.494,VALID,0,VALID,82.002,VALID,336.271,VALID,23.7767,VALID,324,VALID,0.401953,
2007-03-08, 01:47:00,VALID,917.518,VALID,0,VALID,81.2593,VALID,320.955,VALID,23.6795,VALID,272,VALID,0.495508,
2007-03-08, 01:48:00,VALID,917.52,VALID,0,VALID,81.3623,VALID,305.689,VALID,23.5171,VALID,255,VALID,0.669695,
2007-03-08, 01:49:00,VALID,917.548,VALID,0,VALID,82.3962,VALID,315.623,VALID,23.4288,VALID,254,VALID,0.377344,
2007-03-08, 01:50:00,VALID,917.56,VALID,0,VALID,81.9931,VALID,340.873,VALID,23.3674,VALID,322,VALID,0.569949,
2007-03-08, 01:51:00,VALID,917.57,VALID,0,VALID,82.2868,VALID,364.443,VALID,23.293,VALID,271,VALID,0.862571,
2007-03-08, 01:52:00,VALID,917.584,VALID,0,VALID,82.4763,VALID,384.463,VALID,23.2248,VALID,244,VALID,1.16425,
2007-03-08, 01:53:00,VALID,917.605,VALID,0,VALID,83.4427,VALID,396.333,VALID,23.0981,VALID,252,VALID,0.768945,
2007-03-08, 01:54:00,VALID,917.61,VALID,0,VALID,84.1065,VALID,381.542,VALID,23.1155,VALID,324,VALID,0.550249,
2007-03-08, 01:55:00,VALID,917.612,VALID,0,VALID,84.39,VALID,384.412,VALID,23.2723,VALID,9,VALID,0.805432,
2007-03-08, 01:56:00,VALID,917.626,VALID,0,VALID,83.1146,VALID,364.731,VALID,23.3597,VALID,6,VALID,0.741629,
2007-03-08, 01:57:00,VALID,917.626,VALID,0,VALID,83.5381,VALID,371.184,VALID,23.4241,VALID,19,VALID,0.728561,
2007-03-08, 01:58:00,VALID,917.65,VALID,0,VALID,83.5902,VALID,380.914,VALID,23.5629,VALID,4,VALID,0.697011,
2007-03-08, 01:59:00,VALID,917.648,VALID,0,VALID,82.461,VALID,382.408,VALID,23.6275,VALID,353,VALID,0.872093,
2007-03-08, 02:00:00,VALID,917.658,VALID,0,VALID,81.9753,VALID,387.435,VALID,23.6828,VALID,350,VALID,0.265092,
2007-03-08, 02:01:00,VALID,917.675,VALID,0,VALID,82.6276,VALID,390.627,VALID,23.8452,VALID,40,VALID,0.674543,
2007-03-08, 02:02:00,VALID,917.691,VALID,0,VALID,81.5963,VALID,408.457,VALID,23.9849,VALID,323,VALID,0.749414,
2007-03-08, 02:03:00,VALID,917.684,VALID,0,VALID,80.9618,VALID,408.746,VALID,23.8296,VALID,297,VALID,0.370094,
2007-03-08, 02:04:00,VALID,917.699,VALID,0,VALID,80.7978,VALID,429.904,VALID,23.8231,VALID,292,VALID,0.555051,
2007-03-08, 02:05:00,VALID,917.697,VALID,0,VALID,81.0038,VALID,433.317,VALID,23.7451,VALID,299,VALID,0.649325,
2007-03-08, 02:06:00,VALID,917.698,VALID,0,VALID,81.576,VALID,433.572,VALID,23.7159,VALID,320,VALID,0.257631,
2007-03-08, 02:07:00,VALID,917.681,VALID,0,VALID,81.8417,VALID,414.044,VALID,23.8892,VALID,350,VALID,0.305469,
2007-03-08, 02:08:00,VALID,917.671,VALID,0,VALID,81.1843,VALID,390.593,VALID,24.0706,VALID,351,VALID,0.414063,
2007-03-08, 02:09:00,VALID,917.675,VALID,0,VALID,80.1899,VALID,406.844,VALID,24.2392,VALID,37,VALID,0.476563,
2007-03-08, 02:10:00,VALID,917.656,VALID,0,VALID,79.4816,VALID,411.683,VALID,24.3961,VALID,338,VALID,0.371804,
2007-03-08, 02:11:00,VALID,917.671,VALID,0,VALID,79.8746,VALID,452.981,VALID,24.5518,VALID,346,VALID,0.276228,
2007-03-08, 02:12:00,VALID,917.676,VALID,0,VALID,78.9221,VALID,520.581,VALID,24.6688,VALID,299,VALID,0.345796,
2007-03-08, 02:13:00,VALID,917.683,VALID,0,VALID,78.8001,VALID,612.125,VALID,24.7364,VALID,304,VALID,0.229581,
2007-03-08, 02:14:00,VALID,917.684,VALID,0,VALID,78.814,VALID,660.588,VALID,24.8735,VALID,329,VALID,0.520508,
2007-03-08, 02:15:00,VALID,917.697,VALID,0,VALID,78.0956,VALID,675.362,VALID,24.7731,VALID,315,VALID,0.694568,
2007-03-08, 02:16:00,VALID,917.69,VALID,0,VALID,78.5648,VALID,680.252,VALID,24.828,VALID,333,VALID,0.668164,
2007-03-08, 02:17:00,VALID,917.689,VALID,0,VALID,77.3644,VALID,699.763,VALID,24.9453,VALID,359,VALID,0.456055,
2007-03-08, 02:18:00,VALID,917.691,VALID,0,VALID,76.8672,VALID,723.146,VALID,25.0005,VALID,260,VALID,0.544212,
2007-03-08, 02:19:00,VALID,917.682,VALID,0,VALID,77.915,VALID,735.066,VALID,25.0522,VALID,302,VALID,0.594494,
2007-03-08, 02:20:00,VALID,917.675,VALID,0,VALID,77.311,VALID,744.236,VALID,25.1205,VALID,305,VALID,0.588356,
2007-03-08, 02:21:00,VALID,917.677,VALID,0,VALID,76.5519,VALID,667.398,VALID,25.2414,VALID,354,VALID,0.285511,
2007-03-08, 02:22:00,VALID,917.692,VALID,0,VALID,76.59,VALID,585.414,VALID,25.5206,VALID,324,VALID,0.34375,
2007-03-08, 02:23:00,VALID,917.712,VALID,0,VALID,74.4423,VALID,335.507,VALID,25.5534,VALID,272,VALID,0.630327,
2007-03-08, 02:24:00,VALID,917.728,VALID,0,VALID,74.5415,VALID,398.863,VALID,25.3158,VALID,255,VALID,0.608073,
2007-03-08, 02:25:00,VALID,917.737,VALID,0,VALID,75.6694,VALID,636.17,VALID,25.2765,VALID,4,VALID,0.962358,
2007-03-08, 02:26:00,VALID,917.74,VALID,0,VALID,75.9568,VALID,720.887,VALID,25.2671,VALID,3,VALID,1.17569,
2007-03-08, 02:27:00,VALID,917.74,VALID,0,VALID,76.0305,VALID,719.206,VALID,25.4328,VALID,42,VALID,0.932118,
2007-03-08, 02:28:00,VALID,917.731,VALID,0,VALID,76.3268,VALID,719.189,VALID,25.5924,VALID,328,VALID,0.605469,
2007-03-08, 02:29:00,VALID,917.737,VALID,0,VALID,74.3774,VALID,710.427,VALID,25.7719,VALID,21,VALID,1.32236,
2007-03-08, 02:30:00,VALID,917.753,VALID,0,VALID,74.1066,VALID,679.403,VALID,25.8268,VALID,282,VALID,0.464063,
2007-03-08, 02:31:00,VALID,917.769,VALID,0,VALID,71.6244,VALID,663.526,VALID,25.5888,VALID,231,VALID,0.880729,
2007-03-08, 02:32:00,VALID,917.762,VALID,0,VALID,73.3462,VALID,536.679,VALID,25.5661,VALID,343,VALID,0.764258,
2007-03-08, 02:33:00,VALID,917.768,VALID,0,VALID,73.9464,VALID,411.496,VALID,25.6217,VALID,3,VALID,1.04023,
2007-03-08, 02:34:00,VALID,917.759,VALID,0,VALID,73.5394,VALID,652.166,VALID,25.5706,VALID,359,VALID,1.32622,
2007-03-08, 02:35:00,VALID,917.754,VALID,0,VALID,75.3133,VALID,679.641,VALID,25.466,VALID,31,VALID,1.14531,
2007-03-08, 02:36:00,VALID,917.767,VALID,0,VALID,75.396,VALID,677.28,VALID,25.6259,VALID,34,VALID,1.28888,
2007-03-08, 02:37:00,VALID,917.783,VALID,0,VALID,74.9217,VALID,582.052,VALID,25.8109,VALID,23,VALID,0.960938,
2007-03-08, 02:38:00,VALID,917.773,VALID,0,VALID,73.4873,VALID,489.167,VALID,25.9315,VALID,130,VALID,0.453869,
2007-03-08, 02:39:00,VALID,917.79,VALID,0,VALID,72.9774,VALID,720.938,VALID,26.1005,VALID,88,VALID,0.426448,
2007-03-08, 02:40:00,VALID,917.777,VALID,0,VALID,71.8215,VALID,717.423,VALID,26.189,VALID,202,VALID,0.674538,
2007-03-08, 02:41:00,VALID,917.788,VALID,0,VALID,72.4878,VALID,707.133,VALID,26.0784,VALID,285,VALID,0.256138,
2007-03-08, 02:42:00,VALID,917.781,VALID,0,VALID,70.6987,VALID,729.429,VALID,26.1005,VALID,303,VALID,0.432355,
2007-03-08, 02:43:00,VALID,917.788,VALID,0,VALID,70.7368,VALID,488.182,VALID,26.1786,VALID,360,VALID,1.14953,
2007-03-08, 02:44:00,VALID,917.769,VALID,0,VALID,71.3866,VALID,686.824,VALID,26.0849,VALID,19,VALID,1.45579,
2007-03-08, 02:45:00,VALID,917.755,VALID,0,VALID,72.9812,VALID,681.288,VALID,25.8996,VALID,22,VALID,1.34301,
2007-03-08, 02:46:00,VALID,917.766,VALID,0,VALID,73.6348,VALID,580.575,VALID,25.8736,VALID,296,VALID,0.826982,
2007-03-08, 02:47:00,VALID,917.776,VALID,0,VALID,73.8993,VALID,764.885,VALID,25.9679,VALID,131,VALID,0.698611,
2007-03-08, 02:48:00,VALID,917.777,VALID,0,VALID,74.7169,VALID,709.221,VALID,26.2345,VALID,28,VALID,2.08496,
2007-03-08, 02:49:00,VALID,917.773,VALID,0,VALID,73.4682,VALID,600.052,VALID,26.3252,VALID,27,VALID,1.84922,
2007-03-08, 02:50:00,VALID,917.786,VALID,0,VALID,73.0066,VALID,172.576,VALID,26.2797,VALID,26,VALID,2.0423,
2007-03-08, 02:51:00,VALID,917.791,VALID,0,VALID,73.4898,VALID,179.453,VALID,25.9614,VALID,9,VALID,1.25743,
2007-03-08, 02:52:00,VALID,917.785,VALID,0,VALID,73.9133,VALID,403.549,VALID,25.5583,VALID,358,VALID,0.807355,
2007-03-08, 02:53:00,VALID,917.784,VALID,0,VALID,75.1747,VALID,424.758,VALID,25.4387,VALID,26,VALID,0.269345,
2007-03-08, 02:54:00,VALID,917.781,VALID,0,VALID,75.9479,VALID,774.598,VALID,25.5615,VALID,360,VALID,0.541969,
2007-03-08, 02:55:00,VALID,917.792,VALID,0,VALID,75.7889,VALID,798.693,VALID,25.7988,VALID,341,VALID,0.734375,
2007-03-08, 02:56:00,VALID,917.809,VALID,0,VALID,74.1816,VALID,747.394,VALID,25.9647,VALID,282,VALID,0.517485,
2007-03-08, 02:57:00,VALID,917.814,VALID,0,VALID,73.3589,VALID,854.832,VALID,26.1792,VALID,16,VALID,1.36843,
2007-03-08, 02:58:00,VALID,917.838,VALID,0,VALID,72.3823,VALID,611.582,VALID,26.3978,VALID,300,VALID,0.886265,
2007-03-08, 02:59:00,VALID,917.837,VALID,0,VALID,70.9123,VALID,781.152,VALID,26.4072,VALID,350,VALID,1.04778,
2007-03-08, 03:00:00,VALID,917.828,VALID,0,VALID,71.805,VALID,866.396,VALID,26.4755,VALID,35,VALID,1.58685,
2007-03-08, 03:01:00,VALID,917.832,VALID,0,VALID,71.9092,VALID,421.277,VALID,26.573,VALID,313,VALID,0.421689,
2007-03-08, 03:02:00,VALID,917.84,VALID,0,VALID,72.5387,VALID,516.659,VALID,26.6052,VALID,336,VALID,0.71147,
2007-03-08, 03:03:00,VALID,917.84,VALID,0,VALID,69.8518,VALID,381.169,VALID,26.3841,VALID,258,VALID,0.575632,
2007-03-08, 03:04:00,VALID,917.855,VALID,0,VALID,70.7495,VALID,407.54,VALID,26.293,VALID,303,VALID,0.616824,
2007-03-08, 03:05:00,VALID,917.865,VALID,0,VALID,71.5888,VALID,334.081,VALID,25.9205,VALID,316,VALID,0.635764,
2007-03-08, 03:06:00,VALID,917.871,VALID,0,VALID,73.0092,VALID,353.082,VALID,25.7832,VALID,334,VALID,0.865854,
2007-03-08, 03:07:00,VALID,917.871,VALID,0,VALID,74.427,VALID,288.827,VALID,25.647,VALID,19,VALID,0.844703,
2007-03-08, 03:08:00,VALID,917.872,VALID,0,VALID,75.3273,VALID,219.358,VALID,25.5843,VALID,12,VALID,0.626116,
2007-03-08, 03:09:00,VALID,917.877,VALID,0,VALID,76.4069,VALID,209.408,VALID,25.6396,VALID,22,VALID,0.95277,
2007-03-08, 03:10:00,VALID,917.886,VALID,0,VALID,76.2518,VALID,225.556,VALID,25.7212,VALID,18,VALID,0.860647,
2007-03-08, 03:11:00,VALID,917.874,VALID,0,VALID,76.2594,VALID,713.552,VALID,25.7566,VALID,30,VALID,0.98117,
2007-03-08, 03:12:00,VALID,917.85,VALID,0,VALID,75.6261,VALID,949.194,VALID,25.7956,VALID,299,VALID,0.52782,
2007-03-08, 03:13:00,VALID,917.857,VALID,0,VALID,74.085,VALID,837.41,VALID,25.8935,VALID,276,VALID,0.612909,
2007-03-08, 03:14:00,VALID,917.843,VALID,0,VALID,72.4535,VALID,922.874,VALID,25.913,VALID,277,VALID,1.18111,
2007-03-08, 03:15:00,VALID,917.821,VALID,0,VALID,73.0753,VALID,541.926,VALID,25.9035,VALID,21,VALID,1.02708,
2007-03-08, 03:16:00,VALID,917.806,VALID,0,VALID,73.3868,VALID,786.688,VALID,26.0297,VALID,236,VALID,1.02852,
2007-03-08, 03:17:00,VALID,917.803,VALID,0,VALID,73.3042,VALID,1037.58,VALID,26.1217,VALID,324,VALID,0.992569,
2007-03-08, 03:18:00,VALID,917.786,VALID,0,VALID,73.7264,VALID,553.966,VALID,26.3649,VALID,6,VALID,1.33575,
2007-03-08, 03:19:00,VALID,917.774,VALID,0,VALID,72.5018,VALID,282.884,VALID,26.336,VALID,338,VALID,1.15039,
2007-03-08, 03:20:00,VALID,917.774,VALID,0,VALID,72.9456,VALID,258.856,VALID,26.1864,VALID,353,VALID,1.02096,
2007-03-08, 03:21:00,VALID,917.761,VALID,0,VALID,73.6399,VALID,246.46,VALID,26.138,VALID,20,VALID,1.17227,
2007-03-08, 03:22:00,VALID,917.792,VALID,0,VALID,74.8619,VALID,418.442,VALID,26.1676,VALID,26,VALID,0.792225,
2007-03-08, 03:23:00,VALID,917.803,VALID,0,VALID,74.8937,VALID,866.464,VALID,26.255,VALID,358,VALID,0.512058,
2007-03-08, 03:24:00,VALID,917.809,VALID,0,VALID,72.4586,VALID,759.536,VALID,26.3955,VALID,211,VALID,0.84282,
2007-03-08, 03:25:00,VALID,917.803,VALID,0,VALID,72.6086,VALID,615.436,VALID,26.4859,VALID,102,VALID,1.18623,
2007-03-08, 03:26:00,VALID,917.795,VALID,0,VALID,73.1376,VALID,1020.29,VALID,26.6788,VALID,35,VALID,1.23289,
2007-03-08, 03:27:00,VALID,917.785,VALID,0,VALID,71.5913,VALID,975.837,VALID,26.9549,VALID,35,VALID,1.75744,
2007-03-08, 03:28:00,VALID,917.787,VALID,0,VALID,70.6961,VALID,430.821,VALID,27.1955,VALID,7,VALID,1.28239,
2007-03-08, 03:29:00,VALID,917.773,VALID,0,VALID,67.8083,VALID,168.823,VALID,27.1081,VALID,3,VALID,1.38616,
2007-03-08, 03:30:00,VALID,917.783,VALID,0,VALID,68.7124,VALID,163.237,VALID,26.6062,VALID,353,VALID,1.34102,
2007-03-08, 03:31:00,VALID,917.79,VALID,0,VALID,70.8932,VALID,178.486,VALID,26.3207,VALID,240,VALID,0.402521,
2007-03-08, 03:32:00,VALID,917.818,VALID,0,VALID,72.114,VALID,236.628,VALID,26.2264,VALID,248,VALID,0.397928,
2007-03-08, 03:33:00,VALID,917.796,VALID,0,VALID,73.4797,VALID,462.982,VALID,26.1477,VALID,299,VALID,0.59811,
2007-03-08, 03:34:00,VALID,917.782,VALID,0,VALID,73.8688,VALID,215.928,VALID,26.2004,VALID,207,VALID,1.06392,
2007-03-08, 03:35:00,VALID,917.787,VALID,0,VALID,73.9425,VALID,184.514,VALID,26.1054,VALID,205,VALID,0.894903,
2007-03-08, 03:36:00,VALID,917.785,VALID,0,VALID,72.7663,VALID,199.576,VALID,25.9666,VALID,236,VALID,0.702939,